Lapse_Rate
6.0 5.3 4.8 5.3 5.7 5.4 5.6 5.8 5.6 5.6 5.5 5.3 5.2 5.1 5.3 5.9 6.4 6.3 6.2 6.1 6.5 7.0 7.8 7.7 7.3 7.4 7.3 7.3 7.4 7.4 7.3 7.3 7.0 6.8 6.8 6.6 6.5 6.6 6.6 6.5 6.4 6.1 6.0 6.0
6.5 5.5 6.4 6.2 5.8 5.6 5.6 5.8 5.8 5.8 5.7 5.5 5.3 4.9 5.3 5.5 6.0 6.3 6.1 6.1 6.3 6.6 6.9 7.4 7.5 7.3 7.2 7.1 7.3 7.3 7.2 7.2 7.2 7.1 6.9 6.7 6.9 6.8 6.6 6.4 6.2 6.1 5.9 5.9
7.2 6.1 6.4 6.2 6.3 5.9 5.8 5.8 5.1 5.4 5.8 5.9 5.7 5.4 5.3 5.4 5.7 6.3 6.1 6.3 6.2 6.4 6.9 7.3 7.2 7.2 7.1 7.1 7.3 7.3 7.4 7.4 7.4 7.4 7.2 6.9 6.8 6.7 6.5 6.3 6.4 6.5 6.3 6.2
7.4 7.5 7.3 7.4 6.4 6.9 5.6 6.7 6.6 5.5 5.3 5.9 6.1 5.8 5.8 5.6 5.7 6.0 6.5 6.2 6.2 6.1 6.3 7.0 7.2 7.2 7.1 7.0 7.0 7.2 7.4 7.4 7.5 7.4 7.3 7.2 7.1 7.0 7.0 7.1 6.9 6.5 6.2 6.1
7.9 7.4 7.8 7.2 7.4 8.0 6.5 6.7 6.8 6.4 6.1 6.6 6.3 6.4 5.8 5.8 5.7 5.9 6.4 6.7 6.6 6.4 6.5 6.8 7.0 7.2 6.9 7.0 6.9 7.0 7.1 7.5 7.6 7.6 7.5 7.3 7.1 7.0 7.1 6.7 6.5 6.5 6.4 6.2
8.0 8.2 7.4 7.9 8.0 7.3 6.9 6.7 6.0 6.1 6.3 6.9 6.6 7.2 6.7 6.3 5.9 5.9 6.2 6.7 7.0 6.9 6.7 6.7 7.0 7.3 7.3 7.4 7.0 6.8 6.9 7.2 7.5 7.6 7.4 7.4 7.3 7.1 7.0 6.9 6.7 6.5 6.5 6.4
7.3 7.7 7.8 7.8 7.6 7.3 7.1 6.8 5.1 5.9 6.7 6.1 6.5 7.2 6.5 6.0 6.1 6.1 6.6 6.9 7.2 7.2 6.9 6.8 6.9 7.1 7.3 7.4 7.4 7.6 7.2 7.2 7.4 7.4 7.3 7.2 7.3 7.2 7.2 7.1 7.0 6.6 6.3 6.3
7.3 7.5 8.2 7.7 7.1 7.1 7.2 7.1 6.2 5.6 7.0 6.8 7.0 7.5 6.2 6.4 6.9 7.1 7.2 7.3 7.1 7.1 6.7 6.4 6.3 6.6 6.7 6.9 6.9 7.0 7.3 7.4 7.3 7.3 7.2 7.2 7.3 7.1 7.2 7.1 6.9 6.7 6.6 6.6
7.1 7.1 7.6 6.9 7.1 6.8 7.1 7.0 7.2 7.9 7.5 7.5 7.0 7.4 7.2 7.1 7.3 7.4 7.2 7.2 6.9 6.9 7.0 6.9 6.6 6.6 6.9 7.1 7.0 7.1 7.1 7.2 7.2 7.4 7.3 7.1 7.1 7.0 7.1 7.0 6.8 6.7 6.5 6.5
7.1 6.5 7.8 7.3 6.8 7.0 7.3 7.8 7.8 7.8 7.2 7.4 6.4 6.6 8.0 7.5 7.8 8.1 7.9 7.8 7.8 7.6 7.3 6.9 6.7 6.7 6.6 6.6 6.7 7.1 7.2 7.2 7.1 7.2 7.3 7.0 7.1 6.9 6.9 6.8 6.6 6.5 6.3 6.2
7.4 6.8 7.3 7.1 6.8 7.0 7.1 7.2 7.6 8.1 7.6 5.9 6.2 7.0 6.6 7.5 7.9 7.9 7.7 7.8 7.8 7.6 7.3 7.1 7.1 7.1 6.9 6.9 7.0 6.9 7.0 7.1 6.8 7.1 7.1 7.1 6.9 7.0 6.8 6.6 6.4 6.2 5.9 5.9
7.2 6.8 7.0 6.9 7.2 7.0 6.8 7.2 7.4 7.8 6.3 7.4 7.5 7.0 6.7 7.2 7.4 7.5 7.9 7.9 8.1 8.0 7.7 7.4 7.1 7.1 7.2 7.3 7.2 7.3 7.3 7.2 7.0 6.9 7.1 7.0 7.2 6.9 6.5 5.9 5.4 5.7 6.0 6.0
7.1 7.0 6.5 6.8 7.0 6.7 6.2 6.8 7.4 7.5 7.5 7.5 6.0 6.5 6.8 6.6 7.1 7.3 7.8 7.7 7.7 7.9 8.0 8.2 8.2 8.1 8.1 7.9 7.8 7.8 7.8 7.6 7.7 7.3 7.1 7.0 7.0 6.9 6.6 6.4 5.9 5.5 5.4 5.4
6.9 6.7 6.6 6.4 6.3 5.9 5.8 5.9 7.1 7.4 7.3 7.3 6.8 6.8 7.0 7.2 7.4 7.5 7.8 7.9 7.8 7.8 8.1 8.1 8.1 8.0 7.9 8.0 8.1 8.2 7.9 7.7 7.7 7.8 7.5 7.3 7.2 7.0 6.7 6.5 6.0 5.7 5.5 5.1
6.7 6.4 6.3 6.5 6.6 6.4 5.5 5.6 6.9 7.1 6.7 6.7 6.0 6.0 6.5 7.1 7.4 7.7 7.8 7.9 7.9 7.9 7.7 7.8 7.8 7.8 7.8 7.9 7.9 7.9 8.0 7.8 7.5 7.7 7.6 7.3 7.3 7.1 7.2 6.9 6.3 5.7 5.1 4.8
6.6 6.4 6.2 6.5 6.8 7.0 6.1 5.6 5.8 5.9 6.1 6.0 6.0 5.8 5.7 6.3 7.0 6.7 7.3 7.0 7.2 7.7 7.3 7.0 7.0 7.2 7.4 7.5 7.7 7.8 7.6 7.6 7.6 7.3 7.3 7.1 7.1 6.9 6.9 6.4 6.0 5.8 5.2 5.0
6.2 6.3 6.2 6.5 6.9 6.3 6.2 5.5 5.5 5.4 5.5 5.5 5.4 5.5 6.1 6.2 6.3 6.5 6.5 6.7 6.9 6.9 6.8 6.8 6.8 6.9 7.1 7.2 7.6 7.6 7.6 7.6 7.4 7.0 6.8 6.6 6.4 6.3 6.0 5.6 5.4 5.2 4.9 5.0
6.5 6.2 6.1 6.4 6.9 6.1 5.9 5.6 5.5 5.4 5.4 5.5 5.6 5.6 5.9 6.1 6.0 5.8 6.0 6.2 6.3 6.5 6.7 6.7 6.7 6.8 6.7 6.8 7.0 6.9 6.9 7.1 6.8 6.2 5.9 5.7 5.7 5.5 5.4 5.3 5.3 5.3 5.2 5.3
6.6 6.1 6.2 6.5 6.5 6.2 6.0 5.6 5.6 5.6 5.5 5.5 5.6 5.7 5.9 6.0 6.1 6.0 6.1 6.2 6.2 6.3 6.3 6.4 6.5 6.4 6.3 6.4 6.3 6.2 5.9 6.1 6.1 6.1 5.7 5.7 5.7 5.5 5.4 5.4 5.3 5.2 5.2 5.1
6.9 6.6 6.4 6.6 5.9 5.4 5.9 6.0 6.0 5.9 5.7 5.7 5.8 5.8 6.1 6.2 6.5 6.3 6.2 6.1 6.0 6.1 6.1 6.2 6.2 6.2 6.1 6.0 5.9 5.7 5.5 5.8 5.8 5.5 5.3 5.4 5.3 5.2 5.2 5.2 5.2 5.0 4.8 4.8
6.8 6.7 6.6 6.5 6.3 6.1 5.9 6.0 6.2 5.9 5.6 5.6 5.7 5.7 5.9 5.9 6.0 6.0 5.9 5.9 6.1 6.1 6.1 6.0 5.9 5.9 5.8 5.5 5.4 5.5 5.4 5.4 5.4 5.2 5.0 5.1 5.0 5.1 4.8 4.8 5.0 5.1 5.1 5.0
6.7 6.6 6.5 6.5 6.4 5.6 6.2 6.4 6.5 5.8 5.7 5.7 5.6 5.7 5.8 5.7 5.8 5.9 5.9 5.9 5.9 5.9 6.0 6.0 5.8 5.7 5.6 5.4 5.3 5.3 5.3 5.4 5.1 5.1 5.0 5.0 5.0 4.9 5.0 5.0 5.2 5.5 5.4 5.4
7.0 6.8 6.7 6.7 6.7 6.5 6.5 6.5 6.4 6.3 6.1 6.0 6.1 5.9 5.8 5.8 6.0 6.1 6.1 6.0 6.0 5.9 5.8 5.9 5.9 5.7 5.5 5.4 5.3 5.3 5.3 5.2 5.1 5.2 5.2 5.2 5.2 5.2 5.2 5.3 5.4 5.6 5.5 5.4
7.2 7.0 7.0 6.7 7.1 7.0 7.0 6.8 6.7 6.5 6.4 6.4 6.4 6.2 6.1 6.1 6.3 6.1 6.0 6.0 6.0 5.9 5.8 5.7 5.7 5.6 5.6 5.4 5.3 5.3 5.4 5.5 5.5 5.4 5.4 5.4 5.5 5.6 5.5 5.5 5.5 5.7 5.8 5.7
7.5 7.4 7.3 7.3 7.2 7.2 7.1 7.0 6.8 6.7 6.5 6.7 6.7 6.5 6.3 6.3 6.2 6.2 6.1 6.0 5.9 5.9 5.9 5.8 5.7 5.7 5.6 5.6 5.4 5.4 5.4 5.4 5.5 5.6 5.6 5.6 5.6 5.6 5.7 5.7 5.7 5.4 5.1 5.0
7.9 7.7 7.6 7.5 7.4 7.2 7.0 6.9 6.8 6.6 6.5 6.5 6.5 6.5 6.5 6.5 6.5 6.4 6.3 6.3 6.2 5.9 5.7 5.6 5.6 5.6 5.5 5.4 5.4 5.3 5.3 5.5 5.5 5.6 5.5 5.5 5.6 5.6 5.4 4.9 4.7 4.7 4.7 4.7
Wind_Speed
3 4 9 13 16 20 20 18 24 16 14 10 18 21 18 12 11 12 11 13 14 15 12 8 10 12 11 13 15 18 19 17 12 9 8 6 10 8 8 8 16 17 17 16
3 10 16 15 14 19 22 17 22 19 8 17 19 25 17 12 15 16 16 17 15 9 6 7 7 9 13 15 17 16 18 17 16 12 12 6 9 5 7 6 11 15 15 16
11 14 14 13 15 16 20 23 19 19 7 21 9 22 16 6 6 8 10 15 12 14 14 11 10 12 12 15 17 18 20 21 19 17 10 4 5 4 4 7 7 8 15 16
13 21 20 22 13 16 19 20 22 20 16 20 14 17 13 18 20 14 16 11 12 9 8 10 10 8 12 15 14 16 16 16 16 17 14 18 11 10 9 10 9 9 16 15
16 10 6 13 26 14 15 17 17 17 13 12 11 9 9 12 14 17 21 20 19 19 16 19 14 12 13 12 14 15 16 16 17 19 18 15 15 10 6 6 12 11 10 14
23 12 8 23 21 16 11 10 2 1 5 17 17 16 13 8 14 13 15 19 20 19 16 13 14 12 12 12 13 14 16 18 18 19 20 20 20 13 10 11 10 9 8 8
4 12 9 17 17 12 13 5 2 5 10 18 18 11 9 3 12 19 22 22 20 15 13 14 14 10 8 10 12 12 16 18 19 20 20 20 20 16 18 16 12 13 10 7
3 7 4 4 8 6 13 12 6 7 7 11 18 15 20 19 15 11 18 16 10 2 3 5 6 5 6 8 10 13 16 16 19 20 21 18 18 11 12 14 12 12 12 11
9 7 9 13 15 12 4 11 11 2 2 1 2 5 6 4 10 19 20 4 3 5 5 5 5 6 6 6 8 13 13 15 16 19 16 18 16 16 14 15 12 10 11 9
5 12 10 3 5 5 4 5 4 3 5 6 0 3 2 8 9 10 9 7 7 6 6 7 7 7 5 7 7 7 9 13 12 14 14 13 16 16 12 11 13 12 10 11
9 5 10 8 4 2 4 5 4 4 3 3 2 2 3 6 5 6 6 6 6 7 7 7 7 8 7 6 5 3 3 4 6 9 9 10 7 7 11 12 10 12 11 12
5 5 8 20 12 0 6 5 6 5 4 1 4 0 3 5 5 8 9 9 7 6 6 9 9 8 8 7 6 4 2 4 4 5 6 7 10 12 9 10 11 11 12 11
5 2 7 10 4 2 3 5 3 3 2 6 5 4 2 7 6 12 12 10 11 10 9 9 7 7 7 7 5 4 4 4 4 6 8 8 9 10 12 8 9 10 11 11
5 3 3 7 14 12 9 12 7 4 3 4 2 1 13 14 13 13 13 13 10 5 5 6 7 6 6 6 5 3 4 3 3 5 7 8 8 9 9 13 13 12 11 12
2 4 1 11 17 4 12 13 16 8 4 3 3 4 7 10 9 10 8 10 11 12 12 6 6 6 5 5 6 3 6 5 4 6 6 6 8 10 10 10 9 11 10 10
1 4 7 4 7 11 10 16 15 10 10 7 5 3 9 8 4 11 12 12 13 13 13 11 6 4 4 4 4 5 5 5 7 7 8 7 8 9 9 9 10 10 9 8
5 1 3 4 1 5 5 8 11 9 10 4 7 6 10 5 4 8 13 11 12 12 12 12 7 3 1 3 4 5 5 5 8 9 7 8 8 9 7 7 8 8 8 8
1 1 0 4 4 5 2 2 3 11 8 8 3 8 9 9 1 3 7 9 10 11 12 11 8 2 1 3 4 4 4 6 6 8 7 6 7 8 7 7 6 6 5 6
3 2 2 2 2 2 2 5 4 2 3 10 8 13 9 11 2 2 12 10 9 10 10 8 6 3 2 4 4 4 4 6 6 6 5 4 6 7 6 7 6 5 5 5
2 2 2 3 3 2 2 9 8 2 2 10 9 10 11 12 5 4 14 11 10 9 8 7 5 4 4 3 3 4 4 5 6 5 5 5 4 6 6 6 5 3 3 5
3 3 1 3 2 4 5 11 6 4 4 9 6 5 8 5 2 10 9 8 7 7 9 7 6 6 5 4 4 5 5 6 5 5 5 5 5 5 5 4 4 4 3 5
3 3 2 1 3 3 11 3 5 2 3 3 4 4 5 6 7 6 6 7 7 8 8 7 6 6 6 5 4 5 6 5 4 5 5 5 4 3 4 6 4 5 3 4
2 1 2 2 1 2 1 4 1 2 4 4 4 5 6 6 5 7 6 7 6 7 6 5 4 4 6 6 4 5 3 3 4 5 5 4 3 3 4 5 5 4 4 4
2 1 1 2 1 1 3 2 2 2 4 5 4 4 5 6 7 7 7 7 6 6 6 5 5 5 5 5 5 4 4 3 3 4 4 3 3 3 3 3 3 3 3 3
3 2 0 1 2 2 3 4 5 5 3 4 4 4 4 6 5 5 6 7 6 6 6 5 5 4 5 4 4 3 3 2 3 4 3 3 3 3 3 2 2 2 1 3
3 3 3 2 2 0 0 1 3 4 5 5 5 4 6 7 7 5 4 4 5 6 6 6 6 5 5 4 3 3 3 2 1 2 1 2 2 2 2 2 1 3 5 7
Wind_Direction
229 191 239 263 244 260 269 250 255 248 228 245 237 244 239 226 242 236 234 234 237 236 237 213 211 212 202 190 186 188 189 188 173 169 172 184 199 191 191 193 186 183 182 177
259 242 253 242 250 245 250 276 255 254 232 218 237 248 249 215 235 233 233 240 238 241 237 214 213 187 190 192 197 192 195 185 187 186 191 187 189 193 193 183 190 189 178 171
252 263 261 252 251 243 244 244 255 272 245 232 228 248 238 232 234 237 226 235 233 229 239 231 224 208 196 200 200 197 197 192 190 187 169 105 108 101 165 192 189 183 175 179
264 254 246 254 240 238 260 246 243 256 275 243 182 255 229 226 230 235 247 234 243 227 236 236 224 213 201 210 203 204 199 193 191 183 180 184 192 188 198 192 185 181 181 177
249 256 259 246 233 214 244 252 249 244 247 286 200 236 235 208 222 226 241 246 245 244 230 238 231 217 213 205 200 199 194 191 186 189 190 190 199 197 168 166 171 177 179 178
254 261 234 243 255 226 250 252 256 307 254 260 258 223 222 176 205 219 233 238 236 234 237 233 231 223 218 199 196 193 191 194 187 188 192 196 199 179 162 168 174 178 176 176
266 254 242 234 257 239 218 150 252 216 225 243 240 242 250 233 211 221 232 235 241 233 225 226 224 216 209 191 197 195 192 195 191 191 194 196 196 184 181 175 177 171 175 184
263 322 196 162 218 236 203 179 167 209 207 236 228 238 247 234 229 226 231 236 249 332 276 279 277 253 231 213 198 198 199 197 189 190 196 196 195 187 187 181 177 182 183 182
331 276 273 252 262 225 180 193 205 359 310 218 187 284 320 166 223 233 239 219 31 29 34 332 326 326 314 278 218 203 200 203 196 197 190 192 191 187 186 180 174 175 170 164
269 292 300 353 260 187 176 160 166 178 204 196 4 292 253 353 320 9 23 21 351 340 341 338 340 331 319 309 271 218 207 201 195 192 194 198 187 183 169 159 165 163 154 151
288 234 287 328 304 280 169 191 199 146 211 139 107 295 303 290 307 319 335 7 345 344 340 337 332 334 325 320 318 256 186 155 165 181 178 168 174 175 153 156 154 155 149 153
250 286 310 297 304 29 242 258 198 153 225 85 132 192 1 313 316 335 4 10 356 355 346 340 341 336 341 345 352 7 55 120 140 136 132 148 145 144 154 158 153 150 151 151
311 334 313 335 339 265 24 316 279 94 56 172 138 243 43 21 3 11 7 6 6 2 355 346 342 350 343 341 350 17 55 104 99 128 132 143 149 151 139 129 134 139 141 142
352 289 202 284 286 310 334 329 288 116 113 154 241 20 349 356 358 353 1 354 356 357 348 342 338 347 344 344 340 32 39 51 79 110 132 143 151 147 148 145 144 139 141 140
76 271 196 295 296 170 14 358 36 71 16 71 49 106 341 348 344 344 349 352 356 358 1 359 346 341 354 18 356 17 75 56 54 85 93 112 114 113 116 115 119 123 130 134
329 273 325 272 209 80 42 19 39 42 22 40 36 44 360 323 344 12 7 352 355 351 345 344 334 340 5 34 43 357 46 62 79 71 80 78 88 99 106 112 113 112 113 118
258 247 352 273 209 273 32 5 27 50 28 355 36 322 325 330 343 10 3 356 346 336 332 329 325 306 23 46 55 54 27 53 82 86 75 79 89 85 80 98 108 115 125 129
222 107 18 281 332 49 113 324 119 90 46 25 2 344 346 336 271 160 18 359 340 335 333 332 327 320 70 77 75 72 57 65 75 83 86 89 92 99 98 96 100 105 119 132
175 90 299 316 12 148 110 19 341 356 53 18 360 353 346 342 166 188 18 1 341 334 330 327 328 2 56 81 92 86 72 81 76 75 80 82 105 109 112 116 121 124 138 141
122 123 14 331 67 21 330 329 325 137 21 6 6 356 345 342 30 343 352 347 345 344 340 351 3 27 55 46 99 112 97 91 90 95 93 84 86 105 109 118 121 120 134 143
348 355 234 304 72 314 336 311 300 58 296 347 343 326 339 347 312 302 321 337 340 347 354 15 32 47 38 30 56 71 72 73 80 91 94 89 83 88 104 109 112 105 114 131
353 319 344 11 55 330 347 344 59 306 298 292 304 305 315 289 307 310 322 332 344 357 4 14 28 36 24 19 58 76 73 67 71 78 81 78 87 106 117 119 108 112 151 147
28 353 320 350 235 123 70 124 302 309 279 304 321 334 323 314 338 331 335 349 357 1 359 10 25 31 27 18 36 79 63 82 89 89 87 90 92 100 115 125 126 138 171 163
228 348 281 209 11 86 70 78 41 297 309 329 351 343 346 339 351 335 350 355 360 358 4 354 10 23 30 26 47 75 91 89 96 103 107 120 133 123 113 132 149 158 169 155
205 3 242 249 162 127 139 54 0 343 340 354 2 17 352 3 351 341 351 353 353 356 357 1 1 10 8 9 24 31 68 94 115 123 143 149 142 143 133 127 153 167 217 176
186 188 167 229 133 188 336 25 356 338 348 4 6 354 14 19 4 345 348 352 351 354 354 4 0 356 342 344 332 337 360 8 112 130 156 158 144 145 146 159 143 230 196 196